W2DSX-2 Weather Reports


time (UTC)temp
F
wind
direction
speed
knots
gust
knots
rain 1hr
in
rain 24hr
in
rain mn
in
humidity
%
barometer
mb
20260502194503 60 345 0.9 3.5 0.00 0.02 0.02 46 1010.1
20260502191505 60 329 1.7 5.2 0.00 0.02 0.02 47 1010.5
20260502190004 59 336 2.6 7.0 0.00 0.02 0.02 51 1010.6
20260502184502 59 33 1.7 6.1 0.00 0.02 0.02 52 1010.7
20260502181504 59 340 2.6 5.2 0.00 0.02 0.02 53 1010.9
20260502163002 56 17 1.7 4.3 0.00 0.02 0.02 63 1011.6
20260502161504 56 77 0.9 2.6 0.00 0.02 0.02 65 1011.5
20260502123002 52 34 0.9 2.6 0.00 0.02 0.02 79 1012.2
20260502121504 51 91 0.9 2.6 0.00 0.02 0.02 81 1012.2
20260502114502 51 357 0.9 2.6 0.00 0.02 0.02 86 1012.5
20260502113002 51 253 0.0 0.9 0.00 0.02 0.02 87 1012.5
20260502111504 51 239 0.0 0.0 0.02 0.02 0.02 86 1012.0
20260502110004 50 239 0.0 0.0 0.02 0.02 0.02 86 1011.5
20260502103001 51 255 0.0 0.9 0.02 0.02 0.02 82 1011.5
20260502091502 51 234 1.7 3.5 0.00 0.00 0.00 79 1011.8
20260502071503 51 236 1.7 4.3 0.00 0.00 0.00 75 1011.6
20260502070004 51 261 1.7 4.3 0.00 0.00 0.00 74 1011.8
20260502064504 51 250 2.6 4.3 0.00 0.00 0.00 74 1011.8
20260502061503 51 207 2.6 7.8 0.00 0.00 0.00 72 1011.9
20260502060004 51 234 1.7 3.5 0.00 0.00 0.00 71 1012.2
20260502053000 51 253 0.0 1.7 0.00 0.00 0.00 70 1011.9
20260502051502 52 209 1.7 4.3 0.00 0.00 0.00 70 1011.8
20260502050006 52 197 0.9 2.6 0.00 0.00 0.00 67 1011.8
20260502043003 52 245 0.9 3.5 0.00 0.00 0.00 65 1011.9
20260502041503 52 233 0.9 2.6 0.00 0.00 0.00 65 1012.1
20260502040009 52 256 0.9 2.6 0.00 0.00 0.00 67 1012.0
20260502034503 52 212 2.6 7.0 0.00 0.00 0.00 68 1012.1
20260502031503 52 223 2.6 7.0 0.00 0.00 0.00 71 1012.1
20260502023004 51 165 3.5 7.0 0.00 0.00 0.00 78 1012.4
20260502021504 51 195 3.5 7.8 0.00 0.00 0.00 78 1012.2
20260502020007 51 210 2.6 7.8 0.00 0.00 0.00 78 1012.4
20260502014502 51 214 3.5 7.8 0.00 0.00 0.00 78 1012.3
20260502010005 51 193 3.5 8.7 0.00 0.00 0.00 74 1011.9
20260502004504 52 214 3.5 8.7 0.00 0.00 0.00 72 1011.9
20260502003005 52 158 4.3 9.6 0.00 0.00 0.00 70 1011.9
20260502001503 52 192 3.5 8.7 0.00 0.00 0.00 71 1011.9
20260502000006 52 193 4.3 10.4 0.00 0.00 0.00 71 1011.6
20260501234502 52 193 3.5 7.8 0.00 0.00 0.00 72 1011.4
20260501233005 52 180 4.3 10.4 0.00 0.00 0.00 71 1011.3
20260501231503 53 174 4.3 8.7 0.00 0.00 0.00 70 1011.1
20260501230006 53 198 4.3 11.3 0.00 0.00 0.00 69 1011.0
20260501224502 53 112 3.5 8.7 0.00 0.00 0.00 69 1011.1
20260501221502 54 186 3.5 8.7 0.00 0.00 0.00 66 1011.3
20260501220007 54 209 5.2 13.0 0.00 0.00 0.00 66 1011.3
20260501213001 55 175 6.1 12.2 0.00 0.01 0.00 63 1011.1
20260501210005 55 158 4.3 10.4 0.00 0.01 0.00 61 1011.2
20260501204502 56 183 5.2 13.0 0.00 0.01 0.00 58 1011.1
20260501203004 56 257 7.0 13.9 0.00 0.01 0.00 57 1011.2
20260501201504 57 160 7.0 15.6 0.00 0.01 0.00 52 1011.1
20260501200005 58 227 6.1 13.0 0.00 0.01 0.00 50 1011.0